Weather in Natyrbovo

Russia / Republic of Adygea     44°43′51″N   40°37′17″E
temp.,
°C
wind,
m/s
gust,
m/s
humid.,
%
clouds,
%
prec.,
mm/h
press.,
hPa
HPBL,
m
15 may, sat
sat1500:00+17wsw488841 0.0 1011122
03:00+15wsw23865 0.0 101231
06:00+14wsw36870 0.0 1014132
09:00+20w23685 0.0 1014369
12:00+23nw33670 0.0 1014631
15:00+25n236515 0.0 1013854
18:00+24ene127946 0.0 1013169
21:00+19ese33903 0.1 101243
16 may, sun
sun1600:00+17ese33930 0.0 101140
03:00+15sse22900 0.0 101118
06:00+16se228787 1.1 101047
09:00+22e348079 1.1 1009382
12:00+26ene4568100 0.0 10071043
15:00+27e5765100 0.0 10051472
18:00+25e5107999 0.0 1003383
21:00+20ese3988100 0.0 1003172
17 may, mon
mon1700:00+18sse3391100 0.0 100236
03:00+18sw238929 0.0 100332
06:00+18w310965 0.0 1005326
09:00+21nnw457863 0.0 1007610
12:00+23n2370100 0.0 1008906
15:00+21nnw458097 0.2 1009541
18:00+19wsw2587100 2.3 1010305
21:00+16wsw4797100 6.1 1011314
18 may, tue
tue1800:00+15w2697100 3.3 1012288
03:00+14w1295100 3.6 101182
06:00+14nw1496100 0.1 1013180
09:00+16s1289100 0.4 1014384
12:00+20w347164 0.1 10131065
15:00+22nw456520 0.1 10131366
18:00+19nw358046 0.9 1014339
21:00+15ssw1186100 1.0 101511
19 may, wed
wed1900:00+14sse22895 0.0 101417
03:00+13sse339128 0.0 101433
06:00+14se239096 0.0 101562
09:00+20ese34755 0.0 1014487
12:00+24e446295 0.0 10131096
15:00+25e4558100 0.0 10111315
18:00+23e4976100 0.0 1010324
21:00+20se5147964 0.0 1010328